User: anonymous   Login
Location: Unspecified
(0.0000°N, 0.0000°E)
Time: 00:01:22
(UTC+00:00)
Language:

METEOR M2-2 - Orbit

View from above orbital plane
View from above orbital plane
View from above satellite
View from above satellite

Ground track
Ground track

The orbit data is extracted from the following two-line orbital elements,

1 44387U 19038A   21207.54765576 -.00000034  00000-0  40779-5 0  9994
2 44387  98.6724 166.8392 0002233 112.2854 247.8560 14.23689608107032
Epoch (UTC): 26 July 2021 13:08:37
Eccentricity: 0.0002233
inclination: 98.6724°
perigee height: 811 km
apogee height: 814 km
right ascension of ascending node: 166.8392°
argument of perigee: 112.2854°
revolutions per day: 14.23689608
mean anomaly at epoch: 247.8560°
orbit number at epoch: 10703

The dashed part of the orbit path shows where the satellite is in the earth's shadow,  

DLR